Hourly Weather Bolshie Lopatki

Today, 18 June, Friday

Time Temperature Precipitation Wind Pressure Humidity
00:00 +15°C° 0 mm 2 mps 750 mmHg 84%
01:00 +14°C° 0 mm 1 mps 750 mmHg 85%
02:00 +14°C° 0 mm 1 mps 750 mmHg 86%
03:00 +15°C° 0 mm 1 mps 750 mmHg 86%
04:00 +15°C° 0 mm 1 mps 751 mmHg 85%
05:00 +16°C° 0 mm 1 mps 751 mmHg 85%
06:00 +19°C° 0 mm 1 mps 751 mmHg 75%
07:00 +20°C° 0 mm 2 mps 751 mmHg 65%
08:00 +23°C° 0 mm 2 mps 751 mmHg 55%
09:00 +24°C° 0 mm 2 mps 751 mmHg 50%
10:00 +25°C° 0 mm 2 mps 751 mmHg 46%
11:00 +26°C° 0 mm 2 mps 751 mmHg 41%
12:00 +26°C° 0 mm 2 mps 751 mmHg 42%
13:00 +27°C° 0 mm 3 mps 751 mmHg 42%
14:00 +27°C° 0 mm 3 mps 750 mmHg 42%
15:00 +26°C° 0 mm 3 mps 750 mmHg 46%
16:00 +26°C° 0 mm 3 mps 750 mmHg 50%
17:00 +26°C° 0 mm 3 mps 750 mmHg 54%
18:00 +23°C° 0 mm 2 mps 750 mmHg 63%
19:00 +20°C° 0 mm 2 mps 750 mmHg 73%
20:00 +18°C° 0 mm 2 mps 750 mmHg 83%
21:00 +17°C° 0 mm 2 mps 750 mmHg 86%
22:00 +16°C° 0 mm 2 mps 750 mmHg 90%
23:00 +15°C° 0 mm 2 mps 751 mmHg 94%

Tomorrow, 19 June, Saturday

Time Temperature Precipitation Wind Pressure Humidity
00:00 +15°C° 0 mm 2 mps 751 mmHg 94%
01:00 +15°C° 0 mm 2 mps 751 mmHg 95%
02:00 +14°C° 0 mm 1 mps 751 mmHg 96%
03:00 +15°C° 0 mm 1 mps 751 mmHg 94%
04:00 +15°C° 0 mm 1 mps 751 mmHg 92%
05:00 +16°C° 0 mm 1 mps 751 mmHg 90%
06:00 +19°C° 0 mm 1 mps 751 mmHg 81%
07:00 +21°C° 0 mm 1 mps 751 mmHg 72%
08:00 +23°C° 0 mm 2 mps 751 mmHg 62%
09:00 +24°C° 0 mm 2 mps 751 mmHg 57%
10:00 +25°C° 0 mm 2 mps 750 mmHg 51%
11:00 +26°C° 0 mm 2 mps 750 mmHg 46%
12:00 +27°C° 0 mm 2 mps 750 mmHg 44%
13:00 +27°C° 0 mm 2 mps 750 mmHg 42%
14:00 +28°C° 0 mm 2 mps 749 mmHg 41%
15:00 +28°C° 0 mm 2 mps 749 mmHg 45%
16:00 +27°C° 0 mm 2 mps 749 mmHg 48%
17:00 +27°C° 0 mm 2 mps 749 mmHg 52%
18:00 +25°C° 0 mm 2 mps 749 mmHg 62%
19:00 +23°C° 0 mm 2 mps 749 mmHg 73%
20:00 +20°C° 0 mm 2 mps 749 mmHg 83%
21:00 +19°C° 0 mm 2 mps 749 mmHg 87%
22:00 +18°C° 0 mm 2 mps 749 mmHg 90%
23:00 +17°C° 0 mm 2 mps 749 mmHg 94%

Day after tomorrow, 20 June, Sunday

Time Temperature Precipitation Wind Pressure Humidity
00:00 +18°C° 0 mm 1 mps 749 mmHg 95%
01:00 +18°C° 0 mm 1 mps 749 mmHg 96%
02:00 +18°C° 0 mm 1 mps 749 mmHg 97%
03:00 +18°C° 0 mm 1 mps 749 mmHg 95%
04:00 +19°C° 0 mm 1 mps 749 mmHg 94%
05:00 +19°C° 0 mm 1 mps 749 mmHg 93%
06:00 +21°C° 0 mm 1 mps 749 mmHg 85%
07:00 +23°C° 0 mm 1 mps 749 mmHg 76%
08:00 +25°C° 0 mm 1 mps 749 mmHg 68%
09:00 +26°C° 0 mm 2 mps 748 mmHg 62%
10:00 +27°C° 0 mm 2 mps 748 mmHg 56%
11:00 +28°C° 0 mm 2 mps 748 mmHg 50%
12:00 +29°C° 0 mm 2 mps 748 mmHg 48%
13:00 +29°C° 0 mm 2 mps 748 mmHg 45%
14:00 +30°C° 0 mm 2 mps 748 mmHg 43%
15:00 +29°C° 0 mm 2 mps 747 mmHg 47%
16:00 +29°C° 0 mm 2 mps 747 mmHg 51%
17:00 +28°C° 0 mm 2 mps 747 mmHg 55%
18:00 +26°C° 0 mm 2 mps 747 mmHg 64%
19:00 +24°C° 0 mm 2 mps 747 mmHg 74%
20:00 +21°C° 0 mm 2 mps 747 mmHg 83%
21:00 +20°C° 0 mm 2 mps 747 mmHg 86%
22:00 +19°C° 0 mm 2 mps 747 mmHg 89%
23:00 +18°C° 0 mm 2 mps 747 mmHg 92%

21 June, Monday

Time Temperature Precipitation Wind Pressure Humidity
00:00 +19°C° 0 mm 1 mps 747 mmHg 93%
01:00 +18°C° 0 mm 1 mps 747 mmHg 94%
02:00 +18°C° 0 mm 1 mps 747 mmHg 95%
03:00 +18°C° 0 mm 1 mps 747 mmHg 93%
04:00 +19°C° 0 mm 1 mps 747 mmHg 91%
05:00 +19°C° 0 mm 1 mps 747 mmHg 89%
06:00 +20°C° 0 mm 2 mps 747 mmHg 81%
07:00 +21°C° 0 mm 2 mps 747 mmHg 74%
08:00 +24°C° 0 mm 2 mps 746 mmHg 66%
09:00 +25°C° 0 mm 3 mps 746 mmHg 60%
10:00 +27°C° 0 mm 3 mps 746 mmHg 54%
11:00 +28°C° 0 mm 3 mps 746 mmHg 49%
12:00 +28°C° 0 mm 3 mps 746 mmHg 48%
13:00 +29°C° 0 mm 4 mps 746 mmHg 47%
14:00 +30°C° 0 mm 4 mps 745 mmHg 46%
15:00 +29°C° 0 mm 3 mps 745 mmHg 51%
16:00 +29°C° 0 mm 3 mps 745 mmHg 56%
17:00 +28°C° 0 mm 3 mps 745 mmHg 61%
18:00 +26°C° 0 mm 3 mps 745 mmHg 70%
19:00 +25°C° 0 mm 3 mps 745 mmHg 78%
20:00 +23°C° 0 mm 2 mps 745 mmHg 87%
21:00 +21°C° 0 mm 2 mps 745 mmHg 90%
22:00 +21°C° 0 mm 2 mps 745 mmHg 94%
23:00 +20°C° 0 mm 2 mps 745 mmHg 97%

22 June, Tuesday

Time Temperature Precipitation Wind Pressure Humidity
00:00 +20°C° 0 mm 2 mps 745 mmHg 97%
01:00 +19°C° 0 mm 2 mps 745 mmHg 97%
02:00 +19°C° 0 mm 2 mps 745 mmHg 97%
03:00 +19°C° 0 mm 2 mps 745 mmHg 95%
04:00 +20°C° 0 mm 2 mps 745 mmHg 94%
05:00 +20°C° 0 mm 2 mps 745 mmHg 92%
06:00 +23°C° 0 mm 2 mps 745 mmHg 82%
07:00 +25°C° 0 mm 3 mps 745 mmHg 73%
08:00 +27°C° 0 mm 3 mps 745 mmHg 63%
09:00 +28°C° 0 mm 4 mps 746 mmHg 56%
10:00 +30°C° 0 mm 4 mps 746 mmHg 50%
11:00 +32°C° 0 mm 4 mps 746 mmHg 43%
12:00 +33°C° 0 mm 4 mps 746 mmHg 42%
13:00 +33°C° 0 mm 4 mps 745 mmHg 41%
14:00 +34°C° 0 mm 4 mps 745 mmHg 40%
15:00 +33°C° 0 mm 4 mps 745 mmHg 45%
16:00 +32°C° 0 mm 4 mps 745 mmHg 49%
17:00 +30°C° 0 mm 3 mps 745 mmHg 53%
18:00 +28°C° 0 mm 3 mps 745 mmHg 63%
19:00 +26°C° 0 mm 3 mps 745 mmHg 73%
20:00 +24°C° 0 mm 2 mps 745 mmHg 82%
21:00 +23°C° 0 mm 2 mps 745 mmHg 87%
22:00 +21°C° 0 mm 2 mps 745 mmHg 91%
23:00 +20°C° 0 mm 2 mps 745 mmHg 95%

23 June, Wednesday

Time Temperature Precipitation Wind Pressure Humidity
00:00 +20°C° 0 mm 2 mps 746 mmHg 95%
01:00 +20°C° 0 mm 2 mps 746 mmHg 95%
02:00 +19°C° 0 mm 2 mps 746 mmHg 96%
03:00 +20°C° 0 mm 2 mps 746 mmHg 94%
04:00 +20°C° 0 mm 2 mps 746 mmHg 92%
05:00 +21°C° 0 mm 2 mps 746 mmHg 90%
06:00 +24°C° 0 mm 2 mps 746 mmHg 82%
07:00 +25°C° 0 mm 2 mps 746 mmHg 74%
08:00 +27°C° 0 mm 3 mps 746 mmHg 66%
09:00 +29°C° 0 mm 3 mps 746 mmHg 60%
10:00 +30°C° 0 mm 3 mps 746 mmHg 54%
11:00 +31°C° 0 mm 3 mps 746 mmHg 48%
12:00 +33°C° 0 mm 3 mps 746 mmHg 45%
13:00 +33°C° 0 mm 3 mps 746 mmHg 42%
14:00 +34°C° 0 mm 3 mps 746 mmHg 39%
15:00 +33°C° 0 mm 3 mps 746 mmHg 43%
16:00 +33°C° 0 mm 3 mps 746 mmHg 47%
17:00 +31°C° 0 mm 2 mps 745 mmHg 52%
18:00 +29°C° 0 mm 2 mps 745 mmHg 61%
19:00 +27°C° 0 mm 2 mps 745 mmHg 71%
20:00 +25°C° 0 mm 2 mps 745 mmHg 81%
21:00 +24°C° 0 mm 2 mps 745 mmHg 84%
22:00 +24°C° 0 mm 2 mps 746 mmHg 88%
23:00 +23°C° 0 mm 2 mps 746 mmHg 91%
Show more